Weather History for Ashland, WI

Change the Weather History Date:

Wednesday, February 26, 2014

  Actual Average Record
Temperature  
Mean Temperature 2 °F -  
Max Temperature 12 °F 34 °F 55 °F (1976)
Min Temperature -9 °F 8 °F -21 °F (1963)
Degree Days  
Heating Degree Days 64    
Moisture  
Dew Point -6 °F    
Average Humidity 65    
Maximum Humidity 84    
Minimum Humidity 50    
Precipitation  
Precipitation 0.00 in - - ()
Sea Level Pressure  
Sea Level Pressure 29.70 in    
Wind  
Wind Speed 15 mph (WNW)    
Max Wind Speed 25 mph    
Max Gust Speed 37 mph    
Visibility 4 miles    
Events Fog , Snow    
Averages and records for this station are not official NWS values.
T = Trace of Precipitation, MM = Missing Value Source: NWS Daily Summary

Daily Weather History Graph

Daily Weather History Graph

Search for Another Location

Airport:

Trip Planner

Search our weather history database for the weather conditions in past years. The results will help you decide how hot, cold, wet, or windy it might be!

Date:

Astronomy

Feb. 26, 2014 Rise Set
Actual Time 6:48 AM CST 5:45 PM CST
Civil Twilight 6:18 AM CST 6:15 PM CST
Nautical Twilight 5:43 AM CST 6:50 PM CST
Astronomical Twilight 5:08 AM CST 7:25 PM CST
Moon 4:42 AM CST (2/26) 2:53 PM CST (2/26)
Length of Visible Light 11h 57m
Length of Day
10h 56m
Waning Crescent, 10% of the Moon is Illuminated
Feb 26
Waning Crescent
Mar 1
New
Mar 8
First Quarter
Mar 16
Full
Mar 23
Last Quarter

Hourly Weather History & Observations

Time (CST) Temp. Windchill Dew Point Humidity Pressure Visibility Wind Dir Wind Speed Gust Speed Precip Events Conditions
12:53 AM -7.1 °F -25.9 °F -17.0 °F 62% 30.24 in 10.0 mi West 11.5 mph - N/A   Clear
1:53 AM -8.0 °F -23.9 °F -18.0 °F 61% 30.23 in 10.0 mi WSW 8.1 mph - N/A   Clear
2:53 AM -9.0 °F -27.4 °F -18.0 °F 65% 30.20 in 10.0 mi WSW 10.4 mph - N/A   Clear
3:53 AM -9.9 °F -30.5 °F -18.9 °F 65% 30.16 in 10.0 mi WSW 12.7 mph - N/A   Mostly Cloudy
4:53 AM -9.0 °F -27.4 °F -18.9 °F 62% 30.12 in 10.0 mi WSW 10.4 mph - N/A   Overcast
5:53 AM -9.0 °F -27.4 °F -18.9 °F 62% 30.06 in 10.0 mi SSW 10.4 mph - N/A   Overcast
6:53 AM -8.0 °F -28.8 °F -18.0 °F 61% 29.99 in 10.0 mi SW 13.8 mph - N/A   Overcast
7:53 AM -7.1 °F -27.6 °F -17.0 °F 62% 29.94 in 10.0 mi SW 13.8 mph - N/A   Overcast
8:53 AM -4.0 °F -25.8 °F -15.0 °F 59% 29.88 in 10.0 mi SW 17.3 mph 23.0 mph N/A   Overcast
9:53 AM -0.0 °F -22.9 °F -11.9 °F 57% 29.78 in 10.0 mi SW 21.9 mph 31.1 mph N/A   Overcast
10:53 AM 3.9 °F -17.6 °F -8.0 °F 58% 29.66 in 5.0 mi SW 21.9 mph 36.8 mph N/A   Haze
11:53 AM 7.0 °F -9.8 °F -7.1 °F 53% 29.64 in 10.0 mi SW 13.8 mph 25.3 mph N/A   Overcast
12:53 PM 10.0 °F -9.5 °F -4.0 °F 53% 29.60 in 10.0 mi WSW 21.9 mph 28.8 mph N/A   Overcast
1:53 PM 10.0 °F -7.6 °F -2.9 °F 56% 29.58 in 10.0 mi WSW 17.3 mph 29.9 mph N/A   Overcast
2:53 PM 12.0 °F -4.5 °F -2.0 °F 53% 29.56 in 10.0 mi West 16.1 mph 25.3 mph N/A   Overcast
3:53 PM 10.9 °F -4.1 °F 3.9 °F 73% 29.55 in 3.0 mi WSW 12.7 mph 20.7 mph N/A   Haze
4:04 PM 10.9 °F -3.4 °F 3.9 °F 73% 29.48 in 2.5 mi West 11.5 mph - 0.00 in Snow Light Snow
4:30 PM 10.9 °F -2.6 °F 5.0 °F 77% 29.49 in 1.0 mi West 10.4 mph 19.6 mph 0.00 in Snow Light Snow
4:53 PM 10.9 °F -7.5 °F 3.9 °F 73% 29.57 in 0.5 mi West 19.6 mph 28.8 mph 0.00 in Snow Snow
5:07 PM 10.9 °F -3.4 °F 5.0 °F 77% 29.50 in 0.2 mi WNW 11.5 mph 25.3 mph 0.00 in Snow Heavy Snow
5:14 PM 10.9 °F -4.1 °F 6.1 °F 81% 29.50 in 0.5 mi WNW 12.7 mph - 0.00 in Snow Snow
5:24 PM 10.9 °F -3.4 °F 3.0 °F 70% 29.50 in 2.0 mi WNW 11.5 mph - 0.00 in Snow Light Snow
5:28 PM 10.9 °F -3.4 °F 3.0 °F 70% 29.51 in 7.0 mi NW 11.5 mph - 0.00 in Snow Light Snow
5:41 PM 10.0 °F -8.6 °F 3.0 °F 73% 29.51 in 0.8 mi WNW 19.6 mph 27.6 mph 0.00 in Snow Light Snow
5:50 PM 10.4 °F -5.4 °F 1.4 °F 67% 29.52 in 1.2 mi WNW 13.8 mph 27.6 mph 0.00 in Snow Light Snow
5:51 PM 10.0 °F -5.9 °F 1.9 °F 70% 29.59 in 1.8 mi WNW 13.8 mph - 0.00 in Snow Light Snow
5:53 PM 10.0 °F -7.6 °F 1.9 °F 70% 29.52 in 3.0 mi NW 17.3 mph 21.9 mph 0.00 in Snow Light Snow
5:58 PM 10.0 °F -7.1 °F 1.9 °F 70% 29.53 in 1.8 mi NW 16.1 mph 25.3 mph 0.00 in Snow Light Snow
6:09 PM 9.0 °F -9.0 °F 5.0 °F 84% 29.53 in 0.5 mi NW 17.3 mph - 0.00 in Fog , Snow Snow
6:21 PM 9.0 °F -6.6 °F 3.9 °F 80% 29.54 in 1.5 mi NW 12.7 mph - 0.00 in Snow Light Snow
6:28 PM 9.0 °F -5.9 °F 3.0 °F 77% 29.54 in 3.0 mi NW 11.5 mph - 0.00 in Snow Light Snow
6:44 PM 9.0 °F -9.5 °F 1.0 °F 70% 29.55 in 2.0 mi NW 18.4 mph 25.3 mph 0.00 in Snow Light Snow
6:51 PM 8.6 °F -10.5 °F 1.4 °F 73% 29.56 in 1.0 mi NNW 19.6 mph 27.6 mph 0.00 in Snow Light Snow
6:53 PM 8.1 °F -10.2 °F 1.9 °F 76% 29.63 in 0.8 mi NW 17.3 mph 27.6 mph 0.00 in Snow Light Snow
7:18 PM 7.0 °F -14.9 °F -2.9 °F 64% 29.57 in 1.0 mi NNW 25.3 mph 35.7 mph 0.00 in Snow Light Snow
7:27 PM 7.0 °F -12.1 °F -6.0 °F 55% 29.58 in 1.5 mi NW 18.4 mph 31.1 mph 0.00 in   Haze
7:48 PM 5.0 °F -14.7 °F -5.8 °F 61% 29.60 in 3.0 mi NNW 18.4 mph 29.9 mph 0.00 in   Haze
7:53 PM 5.0 °F -15.7 °F -6.0 °F 61% 29.68 in 3.0 mi NW 20.7 mph 35.7 mph 0.00 in   Haze
8:00 PM 3.9 °F -17.1 °F -8.0 °F 58% 29.61 in 2.0 mi NW 20.7 mph 36.8 mph N/A   Haze
8:25 PM 3.0 °F -16.7 °F -11.9 °F 50% 29.63 in 5.0 mi NW 17.3 mph 34.5 mph N/A   Haze
8:53 PM 1.9 °F -16.2 °F -11.0 °F 55% 29.73 in 7.0 mi NW 13.8 mph 28.8 mph N/A   Mostly Cloudy
9:34 PM 1.9 °F -20.2 °F -9.0 °F 60% 29.68 in 3.0 mi NNW 21.9 mph 29.9 mph N/A   Haze
9:41 PM 1.0 °F -20.4 °F -7.1 °F 69% 29.69 in 1.8 mi NW 19.6 mph 26.5 mph 0.00 in Snow Light Snow
9:53 PM 1.0 °F -18.0 °F -4.0 °F 79% 29.77 in 0.8 mi NW 15.0 mph 26.5 mph 0.00 in Snow Light Snow
10:01 PM 1.0 °F -18.7 °F -4.0 °F 79% 29.70 in 1.2 mi NW 16.1 mph 25.3 mph 0.00 in Snow Light Snow
10:16 PM 1.0 °F -18.0 °F -6.0 °F 72% 29.71 in 3.0 mi NNW 15.0 mph 21.9 mph 0.00 in   Haze
10:24 PM 1.0 °F -22.4 °F -9.0 °F 63% 29.72 in 2.5 mi NNW 24.2 mph 31.1 mph 0.00 in   Haze
10:43 PM -0.0 °F -22.9 °F -11.9 °F 57% 29.73 in 4.0 mi NNW 21.9 mph 31.1 mph 0.00 in   Haze
10:53 PM -0.0 °F -23.3 °F -14.1 °F 52% 29.81 in 2.5 mi NNW 23.0 mph 32.2 mph 0.00 in   Haze
11:25 PM -0.9 °F -19.9 °F -15.0 °F 52% 29.76 in 8.0 mi NNW 13.8 mph - N/A   Overcast
11:53 PM -2.0 °F -23.9 °F -14.1 °F 57% 29.85 in 3.0 mi NNW 18.4 mph 29.9 mph N/A   Haze